Everett, WA
on Tuesday, November 27, 2012

Tuesday
Previous Day Next Day
Daily Summary
 ActualAverageRecord
Temperature
Mean Temperature °F °F  
Max Temperature 50°F 47°F 62°F (2013)
Min Temperature 37°F 33°F 0°F (1993)
Degree Days
Heating Degree Days 22    
Moisture
Dew Point 32°F   
Average Humidity 68    
Maximum Humidity 83    
Minimum Humidity 52    
Precipitation
Precipitation 0.00 in in in ()
Wind
Wind Speed 1 mph   
Max Wind Speed 5 mph   
Max Gust Speed mph   
Visibility 10 miles   
Events     
Averages and records for this station are not official NWS values.
Key: T is trace of precipitation, MM is missing value
Source: NWS Daily Summary
Seasonal Weather Averages
Time(PST)TemperatureDew PointHumidity Pressure Visibility Wind DirectionWind SpeedGust SpeedPrecipitationEvents Conditions
12:53 AM 37.9°F 33.1°F 83% 30.08 in 10.0 miles Calm Calm - N/A   Mostly Cloudy
1:53 AM 37.9°F 32.0°F 79% 30.07 in 10.0 miles Calm Calm - N/A   Overcast
2:53 AM 39.9°F 28.9°F 65% 30.08 in 10.0 miles Calm Calm - N/A   Overcast
3:53 AM 39.9°F 28.9°F 65% 30.08 in 10.0 miles ESE 3.5 mph - N/A   Scattered Clouds
4:53 AM 41.0°F 28.9°F 62% 30.07 in 10.0 miles SSE 4.6 mph - N/A   Clear
5:53 AM 39.0°F 30.0°F 70% 30.07 in 10.0 miles ESE 3.5 mph - N/A   Clear
6:53 AM 37.9°F 30.0°F 73% 30.08 in 10.0 miles Calm Calm - N/A   Clear
7:53 AM 39.9°F 28.0°F 63% 30.07 in 10.0 miles Calm Calm - N/A   Clear
8:53 AM 42.1°F 28.9°F 60% 30.07 in 10.0 miles Calm Calm - N/A   Clear
9:53 AM 43.0°F 30.9°F 62% 30.08 in 10.0 miles Calm Calm - N/A   Clear
10:53 AM 44.1°F 33.1°F 65% 30.07 in 10.0 miles Calm Calm - N/A   Partly Cloudy
11:53 AM 46.9°F 30.0°F 52% 30.05 in 10.0 miles Variable 3.5 mph - N/A   Clear
12:53 PM 50.0°F 33.1°F 52% 30.02 in 10.0 miles Calm Calm - N/A   Clear
1:53 PM 46.9°F 34.0°F 61% 30.01 in 10.0 miles West 3.5 mph - N/A   Clear
2:53 PM 44.1°F 36.0°F 73% 30.00 in 10.0 miles Calm Calm - N/A   Clear
3:53 PM 42.1°F 34.0°F 73% 29.99 in 10.0 miles North 3.5 mph - N/A   Clear
4:53 PM 41.0°F 34.0°F 76% 29.99 in 10.0 miles North 3.5 mph - N/A   Mostly Cloudy
5:53 PM 41.0°F 34.0°F 76% 29.98 in 10.0 miles North 3.5 mph - N/A   Mostly Cloudy
6:53 PM 43.0°F 35.1°F 74% 29.96 in 10.0 miles Calm Calm - N/A   Overcast
7:53 PM 45.0°F 34.0°F 65% 29.95 in 10.0 miles Calm Calm - N/A   Mostly Cloudy
8:53 PM 45.0°F 33.1°F 63% 29.93 in 10.0 miles East 3.5 mph - N/A   Clear
9:53 PM 45.0°F 34.0°F 65% 29.92 in 10.0 miles Calm Calm - N/A   Clear
10:53 PM 43.0°F 35.1°F 74% 29.91 in 10.0 miles NE 3.5 mph - N/A   Clear
11:53 PM 41.0°F 36.0°F 82% 29.89 in 10.0 miles Calm Calm - N/A   Clear
Moon Phase
Nov. 27 Nov. 28 Dec. 06 Dec. 13 Dec. 20
Sunrise:07:33 AM (PST) Moon Rise:03:56 PM (PST)11/27
Sunset:04:20 PM (PST) Moon Set:06:41 AM (PST)11/27

Copyright © 2014 The Weather Underground, Inc.